Wind_Speed
38 41 42 41 42 42 43 44 45 44 44 45 45 45 46 48 50 52 52 53 53 53 53 53 51 50 49 48 47 47 46 44 43 42 41 40 40 39 38 37 36 36 35 34
35 37 39 40 40 40 41 42 43 43 43 44 44 45 46 47 48 50 50 50 51 52 52 52 52 51 50 50 49 48 47 46 46 45 44 43 42 41 40 39 38 37 37 37
31 33 37 38 38 38 39 40 41 42 42 43 43 43 44 46 46 47 48 48 48 49 50 50 50 50 50 50 50 50 49 48 47 47 46 45 44 43 42 41 39 39 39 39
28 31 35 36 36 36 36 37 38 40 41 42 42 42 42 44 45 44 44 46 46 46 47 48 49 49 49 49 50 49 49 49 49 48 47 46 45 44 42 42 41 41 40 40
26 29 33 34 35 35 35 35 35 37 39 40 41 41 40 42 43 42 41 43 44 45 45 46 48 48 49 49 49 49 49 49 49 48 48 47 46 45 44 43 42 42 42 42
24 28 30 31 33 34 34 33 33 34 36 39 38 39 38 38 38 39 39 41 43 43 44 45 45 47 48 49 49 49 49 49 49 49 49 48 47 46 45 44 43 43 43 43
21 27 28 30 32 32 33 33 32 33 34 36 35 36 34 33 35 38 39 40 42 44 44 45 45 45 46 48 49 49 49 49 49 49 49 49 48 47 46 45 45 45 44 44
19 24 27 29 30 29 31 32 32 31 32 32 33 34 30 31 33 35 38 40 41 43 44 45 45 46 47 47 49 49 49 49 49 48 48 47 47 47 46 46 45 45 45 45
16 21 25 29 30 29 31 32 30 29 29 30 32 31 29 28 30 32 35 37 39 41 43 44 45 46 47 48 48 49 49 49 49 49 48 48 47 47 47 46 46 46 46 46
13 19 24 27 29 29 30 29 29 28 28 28 29 28 27 26 27 29 32 35 37 38 40 42 44 46 47 47 48 48 48 49 49 49 49 49 49 48 48 48 48 48 47 47
12 17 21 24 26 27 29 28 27 27 28 28 27 26 25 25 26 28 30 33 35 36 38 40 42 44 46 47 47 48 48 49 49 49 49 49 49 49 49 48 48 48 47 47
12 16 20 22 24 26 28 28 26 26 27 27 27 24 23 24 25 26 28 30 32 34 36 38 39 41 43 45 46 47 47 48 48 48 48 48 49 49 49 48 48 47 47 45
11 15 17 21 23 25 26 26 25 26 27 27 27 24 22 22 23 24 26 28 30 32 34 36 37 38 40 41 42 44 45 46 46 46 47 47 47 47 47 47 46 45 44 43
12 14 16 18 20 23 23 24 26 27 27 26 24 23 22 22 24 24 26 27 29 31 32 33 35 36 37 38 39 40 41 43 44 44 45 45 45 45 45 45 44 43 43 42
14 15 17 18 19 21 23 24 25 26 26 26 24 23 22 24 25 26 26 27 28 29 31 32 34 35 36 37 38 38 39 40 41 41 42 42 42 42 43 43 42 42 42 41
16 16 17 18 20 21 22 23 24 25 25 25 25 23 22 24 26 27 27 27 28 29 30 31 32 33 35 36 36 37 38 38 39 40 40 40 40 40 40 41 41 40 40 40
17 18 19 19 20 21 22 21 23 23 23 24 24 23 24 26 27 27 28 28 29 29 30 30 30 31 32 33 35 36 36 37 37 38 38 39 39 39 39 39 39 39 38 38
19 19 20 20 21 22 20 21 22 23 23 24 24 24 25 26 26 27 27 27 27 28 28 28 29 30 31 31 32 33 34 34 35 36 36 37 37 37 37 37 37 37 36 36
20 20 21 21 22 21 20 21 21 22 22 23 24 24 25 26 26 26 26 26 27 27 27 27 27 28 29 30 31 31 32 33 33 33 33 34 34 34 34 34 34 34 34 34
21 21 22 22 22 21 20 21 21 22 22 23 24 24 24 24 24 24 26 27 27 27 27 27 27 27 27 28 29 29 30 30 31 31 31 32 32 32 32 32 32 32 32 31
21 21 21 22 22 21 20 21 21 21 22 22 22 23 23 23 23 24 25 25 25 25 25 25 25 26 26 26 26 27 27 28 28 28 29 29 30 30 30 30 30 30 29 29
20 21 21 21 21 20 20 20 20 20 20 20 20 21 21 21 22 22 22 23 24 24 25 24 24 25 25 25 25 26 26 26 27 27 28 28 28 28 28 28 28 28 28 28
19 20 19 20 20 20 20 20 20 19 19 19 19 19 20 20 21 21 22 23 23 23 24 24 24 24 24 25 25 25 26 26 26 26 27 27 26 26 26 26 26 27 27 27
19 19 19 19 19 20 20 19 20 19 19 19 19 19 19 19 20 21 21 22 22 22 23 23 24 24 24 23 24 24 25 25 25 25 25 25 25 25 25 26 26 26 26 26
20 20 19 19 19 20 20 20 20 20 20 19 19 20 20 20 20 20 21 21 22 22 22 23 23 23 23 23 23 23 24 24 24 25 25 25 25 25 25 25 25 26 26 26
21 21 21 21 20 20 20 20 20 20 20 20 20 20 20 20 20 20 21 21 22 22 23 23 24 24 24 24 24 24 24 24 25 25 25 25 25 25 25 25 26 26 26 27
Wind_Direction
198 201 203 205 208 211 213 215 216 216 218 220 221 221 222 223 223 224 226 227 227 229 230 231 231 231 231 232 232 233 233 236 238 241 244 247 250 253 256 258 261 265 268 271
196 198 200 202 205 208 211 213 215 216 218 220 221 222 222 223 224 225 226 227 228 229 230 232 233 233 233 233 233 233 234 235 238 240 243 246 249 252 255 258 261 264 267 269
194 197 199 201 203 206 209 212 214 217 219 221 222 223 223 224 225 226 226 227 229 231 232 232 232 233 234 234 235 235 236 236 238 239 242 244 247 250 253 257 259 262 265 268
191 193 197 199 201 204 207 209 212 216 219 221 223 225 223 225 226 227 228 229 230 232 233 233 233 234 235 235 236 236 237 238 239 240 242 244 246 249 252 255 258 260 264 267
190 190 194 198 200 202 202 206 210 215 219 222 224 227 224 227 228 228 229 230 231 232 233 234 234 235 235 236 236 237 238 239 240 241 243 245 247 249 251 254 257 260 263 266
189 189 192 195 198 199 201 204 208 214 220 223 224 228 225 228 230 229 230 230 231 232 233 234 235 235 236 237 237 238 239 240 241 243 244 246 248 250 252 254 257 260 263 266
190 192 192 194 196 198 201 202 206 213 219 223 224 228 225 225 229 230 231 232 231 231 233 234 234 235 236 237 237 239 240 241 242 244 245 247 249 251 253 255 258 260 263 266
193 194 194 195 196 199 201 203 209 216 221 223 224 227 226 226 229 231 232 233 233 233 234 234 235 236 237 237 238 239 241 242 242 244 245 247 249 251 253 254 257 260 263 266
197 196 197 198 198 200 202 206 211 218 222 225 225 228 227 227 230 231 232 233 234 235 235 236 236 237 238 239 240 240 242 243 244 245 246 247 249 251 253 255 258 261 263 266
201 201 204 205 203 202 204 206 213 219 224 227 226 227 227 227 230 233 233 234 235 236 236 237 238 239 239 241 242 242 243 244 245 246 247 249 250 252 254 256 259 262 264 266
204 208 208 209 208 207 208 208 213 220 225 228 228 228 228 228 231 235 236 236 238 238 237 237 238 240 241 242 243 243 244 245 246 248 249 250 251 253 255 257 260 262 264 266
215 214 213 212 211 210 211 213 218 223 226 229 232 230 230 232 233 236 238 238 239 240 241 241 241 242 243 244 244 245 245 246 248 249 250 252 253 254 256 258 260 262 265 267
221 219 218 217 218 217 216 219 225 228 230 232 233 232 232 235 237 238 240 241 241 240 241 242 243 243 244 245 246 247 247 248 249 250 251 253 253 255 257 258 260 262 264 266
226 222 221 224 225 223 224 226 226 229 232 234 236 235 236 238 238 239 240 242 241 241 241 242 243 244 245 246 247 248 249 250 250 251 252 253 254 255 256 258 260 262 264 266
234 232 228 228 229 225 226 228 228 231 234 238 238 238 235 237 239 241 242 243 243 243 243 244 244 245 246 247 248 250 251 252 252 253 253 254 255 256 257 258 260 261 263 265
236 235 234 233 234 232 230 230 231 234 236 239 240 239 238 240 242 244 244 244 245 244 245 245 245 246 247 248 249 250 251 252 253 253 254 255 256 257 257 258 259 261 263 265
241 239 239 239 238 237 235 234 236 238 239 242 243 242 242 243 245 246 246 247 248 247 247 247 246 247 248 249 249 250 251 252 254 254 254 255 256 257 257 258 260 260 262 264
242 242 243 242 241 242 242 240 241 243 243 244 245 244 246 246 246 247 247 249 250 250 249 249 249 249 249 250 251 251 251 252 253 254 254 255 256 256 257 258 259 260 262 263
245 244 245 245 244 244 244 243 243 244 243 245 246 246 247 248 247 247 247 247 248 249 249 249 250 250 250 251 252 252 252 252 252 252 253 254 255 256 256 257 258 259 261 263
245 245 245 246 247 246 244 245 245 246 245 245 247 247 248 248 247 245 245 246 248 249 249 249 250 250 251 252 252 252 252 252 252 252 253 253 254 255 255 256 257 258 260 261
245 246 246 246 248 246 246 246 245 246 246 245 246 247 248 248 246 245 247 247 248 248 248 248 249 250 250 251 252 252 252 253 253 253 253 253 253 254 254 254 256 257 258 260
245 246 246 248 248 247 245 245 244 245 245 246 247 247 248 248 247 248 248 248 247 247 247 248 249 250 251 251 252 253 254 254 254 254 253 253 253 253 253 253 255 256 257 259
244 245 246 246 248 248 246 244 244 244 245 246 246 246 247 248 248 248 248 247 247 247 247 247 249 250 252 253 254 255 256 256 255 255 253 253 252 252 252 252 254 256 257 260
242 242 243 244 244 245 244 244 244 245 245 246 245 244 246 246 248 248 248 246 246 246 247 248 250 251 254 255 256 256 256 256 255 254 253 252 252 252 253 254 256 257 259 260
240 241 242 243 243 244 243 243 243 244 244 244 244 244 246 246 248 248 246 246 247 248 250 251 252 253 255 257 257 257 257 256 256 254 253 253 254 254 254 255 257 258 260 262
240 240 238 238 240 242 243 243 244 244 245 246 246 246 246 248 249 249 249 249 250 251 253 253 254 254 256 256 257 257 258 258 256 255 254 255 255 255 255 257 259 260 262 264
Height
5603 5612 5620 5630 5638 5647 5655 5663 5671 5678 5684 5691 5698 5706 5712 5718 5724 5732 5738 5745 5752 5760 5766 5772 5778 5783 5788 5793 5797 5802 5806 5809 5813 5816 5819 5822 5824 5826 5828 5829 5830 5832 5833 5833
5601 5609 5618 5626 5634 5642 5650 5657 5665 5672 5679 5685 5692 5698 5704 5711 5718 5725 5731 5738 5745 5752 5758 5764 5770 5775 5780 5785 5789 5794 5798 5801 5805 5808 5811 5814 5817 5819 5821 5822 5823 5824 5825 5826
5600 5608 5615 5623 5631 5639 5646 5654 5661 5667 5673 5679 5686 5692 5698 5705 5712 5718 5725 5732 5738 5745 5751 5756 5761 5766 5771 5776 5781 5785 5789 5793 5796 5800 5803 5806 5809 5811 5813 5815 5816 5816 5817 5818
5599 5606 5613 5621 5628 5636 5643 5650 5656 5662 5668 5673 5680 5686 5694 5700 5705 5713 5720 5726 5732 5738 5743 5748 5753 5758 5763 5768 5772 5776 5780 5784 5787 5791 5794 5797 5800 5803 5805 5806 5807 5808 5809 5810
5599 5605 5611 5619 5627 5633 5640 5646 5652 5658 5663 5669 5675 5681 5690 5694 5701 5709 5715 5720 5726 5730 5735 5740 5745 5750 5754 5759 5763 5767 5771 5775 5779 5782 5785 5789 5791 5794 5796 5798 5799 5800 5801 5801
5601 5605 5611 5618 5625 5631 5637 5644 5649 5654 5659 5665 5672 5676 5685 5691 5697 5703 5708 5712 5717 5722 5726 5731 5736 5741 5746 5750 5754 5758 5762 5766 5769 5773 5776 5779 5782 5785 5787 5789 5790 5791 5792 5792
5602 5606 5611 5617 5623 5629 5634 5641 5647 5651 5655 5662 5668 5671 5681 5687 5691 5695 5700 5704 5708 5713 5717 5722 5727 5732 5736 5741 5745 5749 5753 5757 5760 5763 5767 5770 5773 5775 5778 5780 5781 5782 5783 5783
5603 5607 5611 5616 5622 5627 5632 5639 5645 5649 5653 5658 5663 5667 5677 5681 5684 5687 5692 5696 5700 5704 5709 5714 5718 5722 5727 5731 5735 5739 5743 5747 5750 5754 5757 5760 5763 5765 5768 5770 5771 5772 5773 5774
5605 5608 5612 5616 5620 5625 5630 5635 5641 5646 5649 5654 5658 5664 5671 5675 5678 5681 5685 5688 5692 5697 5701 5705 5709 5713 5717 5721 5725 5729 5733 5737 5741 5744 5747 5750 5753 5755 5758 5760 5761 5762 5763 5764
5606 5609 5612 5615 5619 5623 5628 5633 5638 5642 5646 5650 5655 5660 5666 5669 5672 5675 5678 5681 5685 5689 5693 5696 5700 5704 5708 5712 5716 5720 5724 5727 5731 5734 5737 5740 5743 5745 5747 5749 5751 5752 5753 5753
5607 5610 5613 5615 5619 5623 5627 5631 5635 5639 5643 5647 5651 5658 5661 5663 5666 5669 5672 5675 5678 5681 5685 5688 5691 5695 5699 5702 5706 5710 5713 5717 5720 5724 5727 5729 5732 5735 5737 5739 5740 5741 5742 5743
5608 5610 5612 5615 5618 5621 5624 5629 5633 5637 5640 5643 5647 5655 5656 5659 5661 5663 5666 5668 5671 5674 5677 5680 5683 5686 5690 5693 5697 5700 5703 5707 5710 5713 5716 5719 5721 5724 5726 5728 5729 5731 5732 5732
5608 5610 5612 5614 5618 5620 5622 5626 5629 5632 5635 5638 5643 5651 5651 5653 5655 5658 5660 5662 5664 5667 5670 5672 5675 5678 5681 5684 5687 5691 5694 5697 5700 5703 5706 5708 5711 5713 5715 5717 5719 5720 5721 5722
5608 5609 5612 5614 5615 5617 5620 5623 5625 5628 5631 5635 5639 5643 5646 5648 5650 5652 5654 5656 5658 5660 5662 5665 5667 5670 5673 5676 5679 5682 5684 5687 5690 5693 5696 5698 5701 5703 5705 5707 5708 5710 5711 5712
5605 5607 5608 5610 5612 5614 5616 5619 5621 5624 5628 5631 5634 5637 5640 5641 5643 5646 5648 5650 5652 5654 5656 5658 5660 5662 5665 5668 5670 5673 5676 5678 5681 5683 5686 5688 5691 5693 5695 5696 5698 5700 5701 5702
5602 5604 5605 5607 5608 5610 5612 5615 5617 5620 5623 5626 5628 5632 5634 5635 5637 5639 5641 5643 5645 5647 5649 5651 5653 5655 5657 5660 5662 5665 5667 5669 5672 5674 5676 5679 5681 5683 5685 5687 5688 5690 5691 5692
5599 5600 5602 5603 5604 5606 5609 5612 5613 5616 5618 5621 5623 5627 5627 5629 5631 5633 5635 5637 5639 5640 5642 5644 5646 5648 5650 5652 5654 5656 5659 5661 5663 5665 5667 5669 5671 5673 5675 5677 5678 5680 5681 5682
5595 5596 5597 5599 5601 5602 5608 5607 5609 5611 5613 5615 5617 5619 5621 5623 5624 5626 5628 5630 5632 5634 5635 5637 5639 5641 5643 5645 5647 5649 5650 5652 5654 5656 5658 5660 5662 5664 5666 5668 5669 5670 5672 5673
5590 5591 5592 5594 5595 5598 5602 5602 5604 5606 5608 5610 5611 5613 5615 5616 5618 5621 5622 5624 5625 5627 5629 5631 5632 5634 5636 5638 5639 5641 5643 5644 5646 5648 5650 5651 5653 5655 5657 5658 5660 5661 5663 5664
5584 5586 5588 5589 5590 5593 5597 5597 5598 5601 5603 5604 5605 5607 5609 5610 5613 5615 5615 5617 5619 5621 5622 5624 5626 5628 5629 5631 5632 5634 5635 5637 5638 5640 5642 5643 5645 5647 5648 5650 5651 5653 5654 5655
5579 5580 5582 5584 5585 5588 5591 5592 5594 5597 5598 5599 5600 5601 5603 5604 5607 5608 5609 5611 5613 5615 5616 5618 5620 5621 5623 5624 5626 5627 5628 5630 5631 5632 5634 5635 5637 5639 5640 5642 5643 5645 5646 5647
5573 5575 5577 5579 5580 5585 5585 5587 5589 5590 5591 5593 5594 5596 5597 5599 5600 5602 5604 5605 5607 5609 5610 5612 5614 5615 5616 5618 5619 5620 5621 5623 5624 5625 5626 5628 5629 5631 5632 5634 5635 5637 5638 5639
5568 5570 5572 5574 5578 5578 5579 5581 5583 5584 5586 5588 5589 5591 5592 5594 5595 5597 5598 5600 5601 5603 5605 5606 5608 5609 5610 5611 5613 5614 5615 5616 5617 5618 5619 5621 5622 5624 5625 5626 5628 5629 5630 5631
5562 5564 5566 5569 5571 5572 5574 5575 5577 5579 5581 5583 5584 5586 5587 5588 5590 5591 5593 5594 5596 5597 5599 5600 5602 5603 5604 5605 5606 5607 5608 5609 5610 5611 5613 5614 5615 5617 5618 5619 5621 5622 5623 5623
5556 5558 5560 5563 5565 5567 5569 5570 5572 5574 5576 5577 5579 5581 5582 5583 5585 5586 5587 5589 5590 5592 5593 5595 5596 5597 5598 5599 5600 5601 5602 5603 5604 5605 5606 5607 5609 5610 5611 5612 5613 5614 5615 5616
5551 5553 5555 5557 5560 5561 5564 5565 5567 5569 5571 5572 5574 5575 5577 5578 5580 5581 5582 5584 5585 5586 5587 5589 5590 5591 5592 5593 5593 5594 5595 5596 5597 5598 5599 5600 5602 5603 5604 5605 5606 5607 5607 5608